Regional Weather Roundup
Issued by NWS Boston, MA

Current Version | Previous Version | Text Only | Print | Product List | Glossary Off
Versions: 1 2 3 4 5 6 7 8 9 10 11 12 13 14 15 16 17 18 19 20 21 22 23 24 25 26 27 28 29 30 31 32 33 34 35 36 37 38 39 40 41 42 43 44 45 46 47 48 49 50
000 ASUS41 KBOX 090110 RWRBOX REGIONAL WEATHER ROUNDUP NATIONAL WEATHER SERVICE TAUNTON MA 800 PM EST MON FEB 08 2016 NOTE: "FAIR" INDICATES FEW OR NO CLOUDS BELOW 12,000 FEET WITH NO SIGNIFICANT WEATHER AND/OR OBSTRUCTIONS TO VISIBILITY. THE FOLLOWING OBSERVATION LOCATIONS DO NOT REPORT PRESENT WEATHER...PROVINCETOWN... SMITHFIELD...BLOCK ISLAND...KEENE...AND OXFORD. MAZALL-090200- EASTERN MASSACHUSETTS CITY SKY/WX TMP DP RH WIND PRES REMARKS BOSTON LGT SNOW 20 16 84 N14 29.79S FOG WCI 7 BEVERLY LGT SNOW 20 15 81 N13 29.78R VSB 1 WCI 7 LAWRENCE LGT SNOW 20 16 84 N13 29.82R FOG WCI 7 BEDFORD LGT SNOW N/A N/A N/A N13 N/A BLUE HILL N/A 17 15 92 N16G22 29.72R WCI 2 NORWOOD LGT SNOW 21 16 81 N7 29.79R FOG WCI 12 MARSHFIELD LGT SNOW 28 27 93 N9G24 29.76R VSB 3/4 WCI 20 PLYMOUTH LGT SNOW 23 21 92 NW13 29.73S VSB 1 WCI 11 TAUNTON LGT SNOW 22 17 81 N10G21 29.76R WCI 11 NEW BEDFORD LGT SNOW 21 18 88 N8 29.73S FOG WCI 11 $$ MAZALL-090200- CAPE COD AND THE ISLANDS CITY SKY/WX TMP DP RH WIND PRES REMARKS FALMOUTH SNOW 28 27 93 N16G24 29.69R VSB 1/2 WCI 17 HYANNIS LGT SNOW 30 28 92 N21G35 29.66R VSB 3/4 WCI 17 CHATHAM LGT SNOW 30 29 96 N12G23 29.67R VSB 3/4 WCI 20 PROVINCETOWN LGT SNOW 30 28 92 N23G36 29.71R FOG WCI 17 NANTUCKET LGT SNOW 33 31 92 N22 29.65R VSB 3/4 WCI 21 MARTHAS VNYRD CLOUDY 26 23 88 N17G25 29.69R FOG WCI 13 $$ MAZALL-090200- CENTRAL AND WESTERN MASSACHUSETTS CITY SKY/WX TMP DP RH WIND PRES REMARKS WORCESTER LGT SNOW 18 14 84 N15G23 29.73S VSB 1 WCI 4 FITCHBURG LGT SNOW 21 16 81 N7 29.81R WCI 12 ORANGE LGT SNOW 21 18 88 N3 29.77F FOG SPRINGFIELD LGT SNOW 22 19 88 N7 29.78R VSB 1 WCI 14 WESTFIELD LGT SNOW 22 19 89 N6 29.78S FOG WCI 14 NORTH ADAMS LGT SNOW 21 19 92 CALM 29.76F FOG PITTSFIELD LGT SNOW 21 17 84 N5 29.71R FOG WCI 15 $$ RIZALL-090200- RHODE ISLAND CITY SKY/WX TMP DP RH WIND PRES REMARKS PROVIDENCE LGT SNOW 21 17 84 N16G23 29.77S FOG WCI 7 NEWPORT CLOUDY 21 17 84 N16G29 29.74S FOG WCI 7 BLOCK ISLAND CLOUDY 25 19 80 N15G25 29.73R WCI 12 SMITHFIELD CLOUDY 19 16 86 N12G17 29.74S WCI 7 WESTERLY CLOUDY 23 17 78 N12 29.77S WCI 12 $$ CTZALL-090200- CONNECTICUT CITY SKY/WX TMP DP RH WIND PRES REMARKS BRADLEY INTL LGT SNOW 23 19 85 N9 29.78S FOG WCI 13 HARTFORD LGT SNOW 24 20 84 N7 29.80R FOG WCI 16 BRIDGEPORT FLURRIES 27 20 75 NE9 29.81R WCI 18 DANBURY LGT SNOW 26 19 74 NE5 29.79S WCI 20 GROTON CLOUDY 24 19 81 N16 29.76F WCI 11 NEW HAVEN FLURRIES 25 20 81 N10 29.80R WCI 15 CHESTER LGT SNOW 25 21 86 N8 29.77R WCI 16 MERIDEN LGT SNOW 25 19 78 N9 29.81R WCI 15 WILLIMANTIC LGT SNOW 24 18 77 NE12 29.78S WCI 13 OXFORD LGT SNOW 23 12 63 NE3 29.77R FOG $$ MEZ002-015-021-024-NHZ003-005-008-011-012-014-VTZ005-008-090200- NORTHERN NEW ENGLAND CITY SKY/WX TMP DP RH WIND PRES REMARKS PORTLAND ME LGT SNOW 19 14 81 N14 29.82R WCI 6 BANGOR ME LGT SNOW 18 13 80 N18 29.80R WCI 2 CONCORD NH LGT SNOW 21 16 81 N8 29.81S VSB 3/4 WCI 11 MANCHESTER NH LGT SNOW 20 17 88 N13 29.80R VSB 1 WCI 7 NASHUA NH LGT SNOW 20 17 88 N6 29.82R VSB 1 WCI 12 PORTSMOUTH NH LGT SNOW 20 15 82 N15G24 29.79R FOG WCI 6 JAFFREY NH LGT SNOW 19 16 88 CALM 29.75R FOG KEENE NH CLOUDY 21 18 86 CALM 29.78S BURLINGTON VT FLURRIES 25 13 60 SE5 29.82S WCI 19 MT. WASHINGTON SNOW 5 5 100 E38 N/A VSB 1/16WCI -21 $$ NYZ052-076-090200- EASTERN NEW YORK CITY SKY/WX TMP DP RH WIND PRES REMARKS ALBANY LGT SNOW 25 20 81 CALM 29.81S NEW YORK CITY LGT SNOW 30 23 75 NE9 29.79S WCI 22 $$ ANZALL-090200- MARINE OBSERVATIONS STATION/POSITION TIME TEMP WIND PRES VSBY WAVE AIR SEA DIR/SP/G HT/PER (UTC) (F) (DEG/KT/KT) (MB) (MI) (FT/S) BOSTON BUOY 0050 26 41 360/ 25/ 33 1006.8R 17/11 BUZZARDS BAY 0100 350/ 25/ 29 1006.8R NANTUCKET SOUND 0050 33 42 360/ 27/ 33 1003.5R 5/ 5 MASS BAY-STELLWA 0004 27 43 10/ 27/ 33 N/A 1 7/8 17/11 ISLE OF SHOALS 0100 21 10/ 26/ 31 1007.9R S OF BLOCK IS NOT AVBL $$ ......................KEY......................... SKY/WX - SKY CONDITION/PRESENT WEATHER TMP - TEMPERATURE IN FAHRENHEIT DWPT - DEWPOINT IN FAHRENHEIT RH - RELATIVE HUMIDITY IN PERCENT WIND - DIRECTION AND SPEED IN MPH PRES - MEAN SEA LEVEL PRESSURE IN INCHES OF HG WCI - WIND CHILL INDEX VSB - VISIBILITY IN MILES HX - HEAT INDEX TC - TEMPERATURE IN CELSIUS VRB - VARIABLE WIND DIRECTION N/A - NOT AVAILABLE

USA.gov is the U.S. government's official web portal to all federal, state and local government web resources and services.